Carroll, IA

12:08 AM CDT on July 21, 2017 (GMT -0500)
Neu

Weather History for KCIN - February, 2013

Change the Weather History Date:

Tuesday, February 12, 2013

  Actual Average Record
Temperature  
Mean Temperature 32 °F -  
Max Temperature 44 °F 32 °F 67 °F (1990)
Min Temperature 19 °F 11 °F -21 °F (1988)
Degree Days  
Heating Degree Days 34    
Moisture  
Dew Point 23 °F    
Average Humidity 74    
Maximum Humidity 93    
Minimum Humidity 43    
Precipitation  
Precipitation 0.00 in - - ()
Sea Level Pressure  
Sea Level Pressure 29.98 in    
Wind  
Wind Speed 11 mph (WSW)    
Max Wind Speed 22 mph    
Max Gust Speed 26 mph    
Visibility 10 miles    
Events      
Averages and records for this station are not official NWS values.
T = Trace of Precipitation, MM = Missing Value Source: NWS Daily Summary

Daily Weather History Graph

Daily Weather History Graph

Search for Another Location

Airport or City:

Trip Planner

Search our weather history database for the weather conditions in past years. The results will help you decide how hot, cold, wet, or windy it might be!

Date:

Astronomy

Feb. 12, 2013 Rise Set
Actual Time 7:18 AM CST 5:48 PM CST
Civil Twilight 6:49 AM CST 6:17 PM CST
Nautical Twilight 6:17 AM CST 6:50 PM CST
Astronomical Twilight 5:44 AM CST 7:22 PM CST
Moon 8:12 AM CST (2/12) 8:54 PM CST (2/12)
Length of Visible Light 11h 27m
Length of Day
10h 29m
Waxing Crescent, 7% of the Moon is Illuminated
Feb 12
Waxing Crescent
Feb 17
First Quarter
Feb 25
Full
Mar 4
Last Quarter
Mar 11
New

Hourly Weather History & Observations

Time (CST) Temp. Windchill Dew Point Humidity Pressure Visibility Wind Dir Wind Speed Gust Speed Precip Events Conditions
12:15 AM 26.6 °F 16.2 °F 21.2 °F 80% 30.12 in 10.0 mi WNW 11.5 mph - N/A   Overcast
12:35 AM 26.6 °F 16.8 °F 21.2 °F 80% 30.12 in 10.0 mi WNW 10.4 mph - N/A   Overcast
12:55 AM 26.6 °F 15.7 °F 21.2 °F 80% 30.13 in 10.0 mi WNW 12.7 mph - N/A   Overcast
1:15 AM 26.6 °F 15.2 °F 21.2 °F 80% 30.13 in 10.0 mi WNW 13.8 mph - N/A   Overcast
1:35 AM 26.6 °F 16.2 °F 19.4 °F 74% 30.12 in 10.0 mi West 11.5 mph - N/A   Overcast
1:55 AM 26.6 °F 16.2 °F 19.4 °F 74% 30.11 in 10.0 mi WNW 11.5 mph - N/A   Overcast
2:15 AM 24.8 °F 17.9 °F 19.4 °F 80% 30.11 in 10.0 mi West 5.8 mph - N/A   Partly Cloudy
2:35 AM 23.0 °F 17.0 °F 19.4 °F 86% 30.11 in 10.0 mi WSW 4.6 mph - N/A   Clear
2:55 AM 23.0 °F 14.7 °F 19.4 °F 86% 30.10 in 9.0 mi WSW 6.9 mph - N/A   Clear
3:15 AM 23.0 °F 13.9 °F 19.4 °F 86% 30.10 in 10.0 mi SW 8.1 mph - N/A   Clear
3:35 AM 21.2 °F 11.7 °F 19.4 °F 93% 30.09 in 10.0 mi SW 8.1 mph - N/A   Clear
3:55 AM 21.2 °F 12.6 °F 19.4 °F 93% 30.07 in 10.0 mi SW 6.9 mph - N/A   Clear
4:15 AM 21.2 °F 10.9 °F 19.4 °F 93% 30.06 in 10.0 mi SW 9.2 mph - N/A   Clear
4:35 AM 21.2 °F 11.7 °F 19.4 °F 93% 30.05 in 10.0 mi SSW 8.1 mph - N/A   Clear
4:55 AM 21.2 °F 11.7 °F 19.4 °F 93% 30.05 in 10.0 mi SSW 8.1 mph - N/A   Clear
5:15 AM 21.2 °F 9.5 °F 19.4 °F 93% 30.05 in 10.0 mi SW 11.5 mph - N/A   Clear
5:35 AM 19.4 °F 10.4 °F 17.6 °F 93% 30.06 in 10.0 mi SW 6.9 mph - N/A   Clear
5:55 AM 19.4 °F 12.8 °F 17.6 °F 93% 30.06 in 10.0 mi WSW 4.6 mph - N/A   Clear
6:15 AM 19.4 °F 11.5 °F 17.6 °F 93% 30.07 in 10.0 mi SW 5.8 mph - N/A   Clear
6:35 AM 21.2 °F 10.1 °F 17.6 °F 86% 30.06 in 10.0 mi SW 10.4 mph - N/A   Clear
6:55 AM 21.2 °F 11.7 °F 17.6 °F 86% 30.06 in 10.0 mi SSW 8.1 mph - N/A   Clear
7:15 AM 21.2 °F 13.6 °F 17.6 °F 86% 30.05 in 10.0 mi SW 5.8 mph - N/A   Clear
7:35 AM 21.2 °F 7.3 °F 19.4 °F 93% 30.04 in 10.0 mi SSW 16.1 mph - N/A   Clear
7:55 AM 23.0 °F 10.1 °F 19.4 °F 86% 30.03 in 10.0 mi SSW 15.0 mph - N/A   Clear
8:15 AM 23.0 °F 10.6 °F 19.4 °F 86% 30.03 in 10.0 mi SW 13.8 mph - N/A   Clear
8:35 AM 24.8 °F 13.4 °F 21.2 °F 86% 30.03 in 10.0 mi SSW 12.7 mph - N/A   Clear
8:55 AM 26.6 °F 14.7 °F 23.0 °F 86% 30.02 in 10.0 mi SW 15.0 mph - N/A   Clear
9:15 AM 28.4 °F 17.0 °F 23.0 °F 80% 30.01 in 10.0 mi SW 15.0 mph 20.7 mph N/A   Clear
9:35 AM 30.2 °F 20.2 °F 23.0 °F 75% 30.01 in 10.0 mi SW 12.7 mph - N/A   Clear
9:55 AM 32.0 °F 22.1 °F 24.8 °F 75% 30.01 in 10.0 mi SW 13.8 mph - N/A   Clear
10:15 AM 32.0 °F 20.8 °F 24.8 °F 75% 30.01 in 10.0 mi SSW 17.3 mph - N/A   Clear
10:35 AM 33.8 °F 23.9 °F 26.6 °F 75% 30.00 in 10.0 mi SSW 15.0 mph 21.9 mph N/A   Clear
10:55 AM 35.6 °F 25.5 °F 24.8 °F 65% 30.00 in 10.0 mi SW 17.3 mph 24.2 mph N/A   Clear
11:15 AM 37.4 °F 26.6 °F 24.8 °F 60% 29.99 in 10.0 mi SW 21.9 mph - N/A   Clear
11:35 AM 37.4 °F 26.6 °F 24.8 °F 60% 29.99 in 10.0 mi SW 21.9 mph - N/A   Clear
11:55 AM 37.4 °F 27.2 °F 26.6 °F 65% 29.98 in 10.0 mi SW 19.6 mph - N/A   Clear
12:15 PM 39.2 °F 29.8 °F 26.6 °F 61% 29.97 in 10.0 mi West 18.4 mph 26.5 mph N/A   Clear
12:35 PM 41.0 °F 31.4 °F 26.6 °F 57% 29.96 in 10.0 mi WSW 21.9 mph - N/A   Clear
12:55 PM 41.0 °F 31.9 °F 24.8 °F 53% 29.95 in 10.0 mi WSW 19.6 mph 26.5 mph N/A   Clear
1:15 PM 42.8 °F 34.5 °F 26.6 °F 53% 29.94 in 10.0 mi WSW 18.4 mph 25.3 mph N/A   Clear
1:35 PM 42.8 °F 34.8 °F 24.8 °F 49% 29.93 in 10.0 mi West 17.3 mph 24.2 mph N/A   Clear
1:55 PM 42.8 °F 34.8 °F 24.8 °F 49% 29.92 in 10.0 mi West 17.3 mph 25.3 mph N/A   Clear
2:15 PM 44.6 °F 36.6 °F 23.0 °F 43% 29.91 in 10.0 mi West 19.6 mph - N/A   Clear
2:35 PM 44.6 °F 36.9 °F 23.0 °F 43% 29.91 in 10.0 mi West 18.4 mph - N/A   Clear
2:55 PM 44.6 °F 37.4 °F 23.0 °F 43% 29.90 in 10.0 mi West 16.1 mph 23.0 mph N/A   Clear
3:15 PM 44.6 °F 37.2 °F 23.0 °F 43% 29.90 in 10.0 mi West 17.3 mph - N/A   Clear
3:35 PM 44.6 °F 37.4 °F 23.0 °F 43% 29.90 in 10.0 mi West 16.1 mph - N/A   Clear
3:55 PM 44.6 °F 37.8 °F 23.0 °F 43% 29.89 in 10.0 mi West 15.0 mph - N/A   Clear
4:15 PM 44.6 °F 38.1 °F 24.8 °F 46% 29.89 in 10.0 mi West 13.8 mph - N/A   Clear
4:35 PM 44.6 °F 38.8 °F 24.8 °F 46% 29.88 in 10.0 mi West 11.5 mph - N/A   Clear
4:55 PM 42.8 °F 37.0 °F 26.6 °F 53% 29.88 in 10.0 mi WSW 10.4 mph - N/A   Clear
5:15 PM 41.0 °F 35.8 °F 26.6 °F 57% 29.87 in 10.0 mi SW 8.1 mph - N/A   Clear
5:35 PM 39.2 °F 33.6 °F 26.6 °F 61% 29.87 in 10.0 mi SW 8.1 mph - N/A   Clear
5:55 PM 37.4 °F 32.8 °F 26.6 °F 65% 29.88 in 10.0 mi West 5.8 mph - N/A   Clear
6:15 PM 35.6 °F 29.9 °F 26.6 °F 70% 29.88 in 10.0 mi West 6.9 mph - N/A   Clear
6:35 PM 35.6 °F 30.7 °F 26.6 °F 70% 29.88 in 10.0 mi WNW 5.8 mph - N/A   Clear
6:55 PM 32.0 °F 26.4 °F 26.6 °F 80% 29.88 in 10.0 mi WNW 5.8 mph - N/A   Clear
7:15 PM 32.0 °F 26.4 °F 24.8 °F 75% 29.88 in 10.0 mi West 5.8 mph - N/A   Clear
7:35 PM 32.0 °F 24.8 °F 24.8 °F 75% 29.88 in 10.0 mi West 8.1 mph - N/A   Clear
8:15 PM 32.0 °F 24.2 °F 24.8 °F 75% 29.88 in 10.0 mi WNW 9.2 mph - N/A   Clear
8:35 PM 33.8 °F 26.4 °F 24.8 °F 70% 29.88 in 10.0 mi NW 9.2 mph - N/A   Clear
8:55 PM 32.0 °F 23.0 °F 26.6 °F 80% 29.89 in 10.0 mi NW 11.5 mph - N/A   Clear
9:15 PM 32.0 °F 23.6 °F 26.6 °F 80% 29.88 in - NW 10.4 mph - N/A   Clear
9:35 PM 32.0 °F 23.6 °F 24.8 °F 75% 29.89 in 10.0 mi NW 10.4 mph - N/A   Clear
9:55 PM 30.2 °F 22.6 °F 24.8 °F 80% 29.88 in 10.0 mi NW 8.1 mph - N/A   Clear
10:15 PM 30.2 °F 24.3 °F 24.8 °F 80% 29.88 in 10.0 mi WNW 5.8 mph - N/A   Clear
10:35 PM 28.4 °F 21.2 °F 24.8 °F 86% 29.87 in 10.0 mi WNW 6.9 mph - N/A   Clear
10:55 PM 26.6 °F - 24.8 °F 93% 29.87 in 10.0 mi Calm Calm - N/A   Clear
11:15 PM 28.4 °F - 24.8 °F 86% 29.87 in 10.0 mi Calm Calm - N/A   Clear
11:35 PM 26.6 °F - 24.8 °F 93% 29.86 in 10.0 mi Calm Calm - N/A   Clear
11:55 PM 26.6 °F 21.2 °F 24.8 °F 93% 29.87 in 10.0 mi WNW 4.6 mph - N/A   Clear